Dewpoint
75 73 73 73 68 65 64 62 41 38 41 36 34 34 35 40 42 40 40 42 44 48 49 50 51 51 49 52 53 55 56 55 56 48 55 65 71 71 72 72 73 72 72 73 75 76 76 76 76 76 77 77 77 77 76 76 76 77 77 77 77 77 77 76 76 76 76 76 76 76 77 77 77 77 76 75 75 74 74 73 73 74 74 74 74 74 74 75 76 76 76 76 76 76 75 75 75
70 70 69 67 65 64 57 56 38 36 36 31 32 35 35 36 37 37 41 44 46 47 47 47 48 49 49 48 51 53 54 59 61 61 62 65 70 70 70 72 71 70 71 71 72 72 74 76 76 76 76 77 77 77 77 77 77 76 77 77 77 77 76 76 76 76 76 75 75 76 76 76 76 76 76 76 75 74 73 73 74 74 74 74 74 74 75 75 75 76 75 75 75 75 75 75 76
67 67 66 66 65 64 59 58 40 36 34 32 33 34 35 36 38 41 44 46 47 48 49 50 50 48 49 50 51 53 55 58 59 60 64 67 67 68 68 69 71 70 71 71 72 73 74 75 76 77 76 77 77 77 77 77 77 77 77 77 77 77 76 76 76 76 75 75 74 75 75 75 75 76 76 75 74 74 74 74 74 74 74 74 74 74 74 74 74 74 74 74 74 74 75 75 75
67 69 65 65 61 57 44 35 38 36 35 34 34 35 35 37 41 43 45 47 47 47 48 49 46 45 46 49 52 55 56 57 57 59 62 65 68 69 68 70 72 69 70 72 71 73 74 75 76 77 77 77 76 77 77 77 76 77 77 77 77 76 76 75 75 75 75 75 74 74 74 74 75 75 76 74 73 74 74 73 74 74 74 74 74 74 74 74 74 73 73 73 72 72 73 73 73
67 68 66 63 63 54 41 38 33 32 31 34 36 40 41 41 43 45 45 45 44 45 46 47 49 53 51 50 51 53 55 56 57 61 63 65 68 70 70 71 71 70 71 72 71 73 74 76 76 76 77 76 77 77 77 77 77 77 77 77 76 76 75 75 75 75 75 75 74 74 74 74 75 75 75 75 74 73 74 74 74 73 73 73 73 73 73 73 73 73 72 73 72 72 72 72 73
67 65 64 64 58 52 48 35 35 33 35 36 37 40 42 45 45 45 46 47 48 45 45 46 47 52 54 53 52 52 55 54 58 63 64 65 67 69 70 70 70 71 72 72 70 73 74 75 75 76 77 76 76 77 76 77 77 77 77 76 75 75 74 74 75 75 75 75 74 74 74 74 74 75 75 75 75 74 73 73 73 73 73 73 73 73 73 73 73 73 72 72 72 72 70 70 71
62 61 61 62 60 55 37 33 33 35 35 36 37 40 43 43 43 44 45 42 41 40 40 41 46 48 49 54 58 59 59 58 59 62 63 67 69 69 69 70 71 72 71 70 70 73 74 75 76 76 76 75 76 76 76 77 77 77 77 76 76 75 75 75 75 74 74 74 74 74 74 73 73 73 73 73 73 72 72 72 72 72 72 72 72 72 72 72 71 71 72 72 72 72 71 70 71
63 61 52 51 36 44 35 33 33 34 34 37 39 42 44 44 44 42 43 43 44 45 47 47 48 48 49 52 53 58 60 61 61 62 64 67 68 68 68 68 71 70 70 70 72 74 78 76 76 77 76 75 75 75 76 77 77 77 76 76 75 75 75 75 74 74 74 74 74 74 74 73 73 73 72 72 72 72 71 72 72 72 72 71 71 71 71 71 71 71 71 71 71 71 70 71 72
60 58 54 53 34 33 33 32 33 35 36 39 43 46 51 43 41 38 37 40 44 44 43 45 47 46 49 53 55 59 61 63 63 65 64 66 67 68 66 66 68 69 69 69 71 74 74 77 77 77 77 76 76 76 76 76 76 77 76 76 74 75 75 75 75 75 74 74 74 74 74 73 73 73 73 73 73 73 72 72 72 72 72 72 71 71 71 70 71 72 75 73 74 73 71 71 72
55 54 48 41 35 34 33 33 34 36 39 40 40 42 41 38 39 40 41 44 43 43 47 49 49 49 49 50 54 56 60 63 63 64 64 66 66 65 65 65 68 66 68 69 71 72 75 78 77 77 77 77 76 76 76 76 76 76 75 75 74 74 74 75 75 74 74 74 74 74 72 72 71 73 73 73 73 72 72 72 71 71 70 70 71 71 71 71 75 75 75 76 76 77 76 75 72
54 49 45 36 33 32 33 32 34 36 38 40 41 41 41 41 40 40 41 42 45 46 46 48 48 50 54 56 56 59 62 62 62 62 65 66 67 66 65 67 67 66 68 69 71 74 75 77 78 77 77 77 77 76 77 76 76 75 75 75 75 74 75 75 75 74 74 73 71 72 72 71 72 72 72 72 73 72 72 71 71 70 71 71 72 71 71 71 76 76 75 75 76 76 76 75 76
53 39 40 35 34 35 32 32 33 36 38 40 41 41 40 39 41 41 39 39 44 46 47 48 50 53 53 54 56 59 61 62 62 63 65 65 64 64 66 65 65 66 66 67 71 74 75 76 78 77 76 77 77 77 76 76 76 75 75 75 75 75 75 75 75 75 73 73 73 73 75 74 74 73 73 73 74 72 72 72 71 71 70 71 71 71 70 75 76 75 75 75 75 75 75 75 75
53 32 30 30 29 33 33 34 34 37 37 39 41 43 43 42 41 40 40 41 42 44 47 48 51 51 51 55 57 59 60 62 62 64 65 64 64 63 63 63 66 65 67 69 70 72 74 75 75 76 76 76 75 76 76 77 77 77 77 77 76 76 76 76 76 75 73 75 74 73 73 74 73 73 73 73 72 74 71 72 71 71 70 70 70 70 70 75 76 76 75 74 75 75 75 74 74
44 32 29 33 30 30 30 33 35 33 35 40 43 44 42 41 42 43 45 46 46 45 45 48 51 53 55 55 57 58 60 63 63 64 64 66 64 62 63 63 66 67 69 71 71 74 74 72 74 76 77 75 74 75 74 74 76 78 78 77 77 77 75 77 75 74 75 74 73 74 74 74 74 73 73 73 73 73 75 72 71 70 70 69 70 70 71 73 75 75 75 75 74 74 73 74 74
42 32 28 32 28 28 29 28 28 33 37 41 43 44 42 44 44 44 44 45 43 46 49 53 50 51 47 53 55 58 60 62 64 66 66 67 67 67 67 67 67 68 68 66 70 72 70 73 70 75 79 77 76 76 76 76 75 76 78 79 78 77 78 78 76 76 75 73 74 74 74 74 73 74 73 73 73 74 73 75 72 71 70 71 70 71 71 72 75 75 75 76 75 75 74 74 75
38 35 26 30 24 23 26 27 29 30 35 40 43 45 45 45 45 45 47 45 46 50 52 48 53 53 50 51 54 58 60 62 64 66 67 67 69 69 68 69 69 68 69 68 69 71 71 71 72 71 76 76 76 76 76 77 76 77 77 78 77 76 77 78 77 77 77 76 75 74 74 74 73 73 73 74 74 74 75 74 75 73 72 72 71 71 71 72 75 76 76 76 76 76 75 75 75
36 36 24 22 22 20 21 24 27 30 36 40 44 45 44 45 46 47 48 48 48 52 55 51 50 52 50 53 56 59 59 63 64 66 67 68 68 67 67 70 70 71 70 70 70 69 69 71 72 72 72 76 74 76 77 76 77 77 77 77 77 77 78 77 78 77 77 76 75 74 73 75 76 76 74 74 73 74 74 75 76 75 72 72 72 72 72 73 74 74 75 77 76 76 75 75 75
34 33 22 22 18 17 20 23 26 30 36 38 40 42 44 44 47 48 49 49 51 54 54 52 54 54 53 55 58 59 59 61 62 63 64 66 66 65 65 63 69 68 69 69 70 70 71 72 71 70 72 72 77 75 76 77 76 77 75 77 75 77 78 77 77 73 72 78 76 75 76 76 76 76 76 76 76 76 76 75 76 76 75 74 74 74 74 74 74 75 76 77 77 76 76 76 76
33 23 22 18 18 20 24 24 24 30 34 36 37 40 42 44 46 49 48 49 51 54 53 56 56 56 57 58 58 59 60 59 61 60 61 65 64 64 64 65 66 66 67 69 72 72 73 71 71 72 74 74 75 75 76 75 76 76 75 75 74 74 72 74 73 74 76 77 77 77 78 76 77 78 77 77 77 76 76 76 76 76 77 76 76 76 75 75 75 75 76 77 76 76 76 74 77
24 20 21 20 22 22 25 26 29 32 34 35 37 39 39 43 42 45 48 49 47 51 54 56 56 57 57 58 58 59 60 61 62 60 59 62 62 61 63 64 65 65 66 67 67 71 70 69 70 70 73 74 72 72 71 74 75 74 74 74 72 73 74 75 76 75 76 77 75 76 77 76 77 78 76 77 77 76 74 75 77 77 76 76 76 76 74 73 77 76 76 76 74 75 74 76 76
17 18 18 21 23 23 26 29 31 32 36 36 37 38 38 41 40 42 42 44 48 51 54 55 57 58 58 58 59 60 60 60 61 61 60 63 62 58 59 63 62 66 66 65 67 69 70 69 70 70 72 72 70 69 73 71 74 71 73 73 76 73 74 74 73 75 75 75 76 75 74 74 75 74 75 74 76 73 71 71 68 68 69 70 75 74 71 67 70 73 75 76 74 74 73 74 75
20 23 23 24 26 27 30 31 33 35 35 35 37 38 38 41 41 44 45 43 48 51 55 57 57 59 58 59 59 60 60 61 61 61 62 61 63 62 60 62 62 63 66 66 65 68 70 70 70 70 72 72 70 67 68 72 74 72 72 72 71 70 71 72 74 74 74 75 75 71 69 71 74 77 74 74 74 75 74 75 71 67 68 68 70 69 65 70 71 73 74 73 73 73 73 74 72
21 24 27 29 29 30 33 34 34 34 34 36 39 37 41 41 44 48 52 53 53 55 57 57 58 59 59 59 60 60 61 61 61 61 62 60 63 62 62 60 61 61 65 66 67 68 70 70 71 71 70 71 72 70 69 69 70 70 68 69 69 67 69 68 69 71 71 75 74 74 71 72 72 72 74 74 75 73 72 71 70 72 72 72 73 72 72 72 73 73 75 73 73 73 72 74 75
21 26 29 28 29 33 35 35 35 34 34 33 35 39 40 45 45 51 52 55 56 58 58 58 59 59 59 58 60 60 61 62 61 62 62 61 62 63 62 61 60 62 63 66 67 68 69 69 71 71 71 71 71 70 70 70 70 70 71 71 71 70 70 72 71 70 73 76 77 76 75 72 68 69 72 74 73 72 72 73 74 73 72 71 72 73 71 72 72 74 73 72 73 73 71 73 74
25 27 31 31 32 34 35 35 33 33 33 33 35 37 40 43 47 50 54 57 58 58 59 59 59 59 58 59 59 61 62 62 61 63 63 62 63 63 63 63 62 62 63 64 65 67 68 68 70 70 70 71 69 69 70 69 70 71 70 70 72 72 72 69 69 73 72 75 75 76 75 73 68 67 66 72 73 72 74 73 74 73 72 72 72 71 73 72 73 73 74 74 75 73 72 72 72
27 32 31 32 32 34 34 32 30 31 33 35 37 39 41 45 47 50 55 57 59 59 59 59 59 58 59 59 60 63 64 63 63 63 63 63 64 64 64 63 63 62 63 64 65 67 68 68 69 68 69 70 70 69 70 69 70 71 72 72 73 74 73 72 74 73 73 71 75 75 76 75 73 68 71 73 74 73 73 75 73 73 73 74 73 72 73 74 74 73 73 72 72 72 71 71 74
29 30 32 33 34 33 32 29 31 34 36 38 38 40 40 43 43 47 54 56 59 59 59 60 58 59 59 60 60 64 63 63 63 63 63 65 65 65 65 65 64 64 64 65 65 67 68 69 68 69 69 72 71 70 71 72 72 72 73 73 73 73 74 75 74 73 76 73 74 73 74 76 76 72 72 75 74 74 73 74 73 73 73 74 75 73 74 76 75 74 73 71 70 70 70 71 71
28 32 33 33 32 33 32 33 35 36 37 36 35 37 40 41 42 46 53 56 58 58 59 59 58 59 59 60 62 65 64 65 64 64 63 65 63 64 66 66 67 65 65 66 66 68 67 68 68 70 70 72 72 71 72 72 73 74 74 74 72 74 74 73 72 72 73 75 76 75 74 73 74 72 76 75 73 74 74 73 73 73 72 72 71 71 70 71 71 72 73 73 72 72 72 73 73
32 33 32 32 31 33 35 35 36 37 36 37 38 36 36 39 42 48 52 54 56 58 59 59 59 60 60 61 61 64 63 63 63 60 62 62 61 60 62 64 64 65 63 66 67 67 66 67 68 69 70 72 73 71 70 72 74 74 74 74 74 74 74 74 73 72 74 74 74 74 74 74 75 74 76 76 74 74 74 74 72 73 73 73 74 72 71 71 70 70 70 72 72 70 70 72 72
34 33 35 32 28 30 36 37 36 37 40 41 40 32 37 38 45 49 52 53 54 55 53 57 59 59 59 60 61 63 63 64 62 63 63 62 63 63 62 60 62 62 61 65 67 67 67 68 67 68 70 71 73 71 71 70 73 74 74 73 73 74 72 72 72 74 74 72 72 73 74 75 75 76 77 76 75 74 74 74 73 73 73 73 73 73 72 71 70 71 70 69 68 68 71 72 72
30 32 33 31 28 30 34 36 35 36 36 38 37 35 36 41 46 48 50 52 52 53 54 54 56 57 59 60 61 63 64 65 64 66 65 66 66 66 66 66 67 67 67 67 67 69 69 71 72 72 72 73 72 72 71 72 73 74 73 73 72 75 74 72 71 72 72 73 73 72 75 76 77 77 76 75 75 74 73 72 72 72 72 72 73 73 74 72 71 70 72 69 69 70 70 71 70
30 29 27 31 29 30 31 36 32 37 31 39 35 38 37 41 44 48 49 49 50 52 54 55 56 57 58 60 62 62 64 66 67 66 66 68 69 68 69 70 69 70 71 72 71 70 71 74 74 72 73 74 73 74 73 73 73 74 74 73 73 74 73 72 71 72 73 75 75 75 77 77 76 76 76 76 75 75 74 73 72 73 72 72 72 72 71 70 71 71 70 70 69 68 69 71 69
29 27 28 28 29 31 32 35 34 36 34 36 36 42 37 41 45 46 48 49 49 51 52 53 56 57 59 60 61 63 65 65 67 67 69 69 69 68 69 70 70 72 72 73 73 73 74 73 74 73 71 73 73 73 74 74 75 75 75 74 71 74 71 70 71 73 76 76 77 76 76 75 75 75 75 75 74 74 74 74 73 73 72 71 70 71 70 70 70 69 70 70 69 69 68 68 71
29 25 28 28 26 31 31 33 34 35 34 33 31 34 38 41 44 45 47 48 49 49 50 53 55 57 60 61 62 63 65 65 67 68 68 69 70 70 70 71 72 72 73 73 74 71 71 72 72 71 71 70 72 73 73 73 74 73 72 74 74 72 73 72 72 75 76 77 78 76 76 75 74 74 74 74 75 74 73 72 72 73 73 72 71 70 70 70 70 69 69 70 70 69 68 68 66
26 24 24 26 26 29 30 32 33 38 33 34 33 39 39 41 45 45 45 47 47 48 49 52 55 57 60 60 61 62 65 65 65 68 69 71 69 71 70 70 72 73 72 73 73 72 72 72 71 71 71 71 70 72 72 73 73 73 73 74 73 75 75 73 73 72 74 76 76 76 76 75 75 75 74 74 74 73 73 73 72 72 71 71 70 69 69 70 70 70 69 69 70 69 68 68 67
21 22 21 23 23 27 28 29 33 37 31 31 36 37 39 41 44 44 45 46 47 49 49 51 54 56 59 61 62 63 61 64 67 69 68 69 70 70 69 69 70 70 71 72 73 73 72 72 72 72 72 71 71 71 69 70 72 72 72 72 72 73 74 75 73 71 73 76 76 76 76 76 75 74 73 73 72 72 72 72 72 72 71 70 69 69 69 69 69 69 69 69 69 69 71 71 71
19 20 21 23 21 25 27 29 32 32 33 32 33 40 40 41 44 44 45 46 48 48 49 50 53 55 55 60 61 62 65 65 66 67 68 68 69 70 70 70 70 70 71 71 72 72 72 71 72 71 72 72 71 72 72 74 73 72 73 72 71 69 74 72 71 71 75 75 75 75 75 75 75 74 74 73 73 72 71 71 71 71 70 69 69 68 69 69 69 68 68 68 68 67 66 68 68
12 19 16 18 19 22 24 27 30 31 30 31 38 39 41 44 44 44 45 46 46 46 49 50 51 53 55 58 58 58 62 57 59 65 66 64 67 69 69 69 70 70 71 71 71 71 72 72 72 72 72 71 72 72 74 73 73 72 71 69 67 63 66 66 66 67 72 73 74 75 76 75 75 74 73 73 73 72 72 71 71 70 70 69 69 68 69 68 68 68 68 67 67 66 66 67 67
12 14 17 16 18 18 23 23 28 29 29 33 34 35 41 43 44 44 44 44 47 48 49 51 53 53 55 55 54 57 56 59 59 59 63 65 65 67 69 68 68 69 70 70 71 71 72 72 72 72 72 71 73 74 73 74 75 73 69 68 66 64 65 65 63 63 65 65 70 74 75 74 73 71 70 70 72 73 73 72 72 71 71 70 69 69 69 68 68 67 67 66 66 67 67 68 68
13 10 16 14 15 16 21 21 27 27 27 27 38 34 40 44 46 46 45 42 45 47 47 49 50 52 53 51 54 56 55 58 58 58 60 62 64 66 68 67 68 68 69 70 70 71 72 72 73 72 73 76 74 74 74 75 71 70 71 70 69 64 64 63 65 62 63 63 63 63 66 68 68 68 67 67 68 68 68 69 69 70 71 72 70 69 68 68 69 68 68 68 68 67 67 67 68
12 14 8 9 11 9 15 23 24 26 27 26 34 35 40 43 44 46 47 44 43 44 46 50 51 51 52 52 54 55 55 57 57 58 60 60 64 64 67 68 67 67 68 68 69 70 71 72 72 72 72 74 73 73 73 72 71 72 70 67 64 63 63 62 62 61 60 60 59 61 64 66 67 68 67 67 67 67 68 68 67 68 69 70 71 71 70 70 70 68 68 69 68 67 66 67 67
11 11 13 12 11 12 16 18 25 24 27 26 25 37 39 53 47 47 46 45 45 46 48 50 53 52 52 51 53 54 53 57 57 59 57 59 61 64 67 68 67 66 67 67 67 70 71 71 72 71 71 72 70 71 69 66 66 65 64 62 61 61 61 61 63 61 59 61 57 60 64 63 66 68 68 67 67 68 69 69 69 69 69 70 71 71 72 72 69 71 71 69 70 69 68 68 67
11 13 14 10 7 8 16 15 23 27 26 27 26 30 34 46 50 47 42 45 48 50 50 50 54 55 52 51 52 52 52 51 55 56 58 59 61 64 66 67 66 65 66 67 68 71 71 72 72 72 71 71 70 68 65 64 64 64 63 61 61 61 60 63 64 64 64 63 62 63 63 64 66 67 67 67 68 68 69 69 69 69 69 69 70 72 72 71 71 70 71 70 69 68 68 66 66
13 14 15 15 10 12 14 20 25 27 24 23 26 27 30 36 39 40 42 44 46 48 47 49 50 56 53 52 50 53 53 50 51 56 59 60 61 63 65 66 65 63 66 68 69 71 72 72 72 70 70 69 68 67 64 63 64 63 63 62 62 62 61 63 62 63 64 65 63 64 64 64 66 67 67 68 68 68 69 69 69 69 69 69 71 72 70 71 71 71 71 70 70 70 69 67 66
23 25 15 13 13 15 13 19 21 22 22 29 29 31 33 32 34 41 44 42 42 42 45 46 48 52 54 54 52 53 52 54 53 55 58 58 60 62 63 65 64 63 66 69 69 71 71 72 71 70 69 68 67 65 65 65 63 62 62 63 63 64 63 62 61 61 63 65 64 65 66 65 66 66 66 66 67 67 67 68 69 68 67 67 68 68 70 70 69 69 71 71 70 70 69 68 68
19 26 19 14 16 14 18 22 21 24 31 29 31 33 35 33 31 30 35 38 41 44 45 45 46 48 50 51 52 54 55 56 55 56 58 59 61 61 62 63 62 62 67 69 69 71 71 70 70 69 67 66 67 66 67 67 65 64 64 64 62 61 63 62 61 61 63 64 63 64 65 65 65 65 65 65 66 65 66 66 66 66 67 64 67 66 67 69 71 70 68 69 70 70 69 68 68
23 21 24 23 19 23 25 26 29 29 27 30 26 27 28 27 32 30 31 35 37 42 46 44 45 46 47 50 50 51 54 56 56 57 59 60 61 62 61 63 64 64 67 68 68 70 69 69 69 67 67 66 67 67 67 66 65 63 63 62 61 61 61 61 62 62 63 63 64 64 64 64 65 65 65 65 64 64 65 66 64 64 65 66 67 66 65 63 62 63 64 66 67 67 67 67 68
20 20 20 22 27 28 31 27 31 27 24 30 22 21 27 28 28 28 31 34 34 35 39 44 42 44 47 50 47 49 53 54 55 56 58 61 62 62 62 64 64 66 67 68 66 69 68 67 67 67 66 66 67 66 65 63 61 65 62 61 61 62 61 62 63 62 63 63 63 62 64 63 65 65 66 64 65 62 65 66 66 65 64 65 64 64 64 64 64 64 65 66 69 69 68 69 69
17 20 23 23 24 26 22 25 24 24 21 24 19 19 20 28 30 27 25 27 34 36 33 35 41 44 47 49 49 49 50 51 56 58 60 60 61 62 63 64 67 68 68 68 67 65 67 67 67 67 65 67 68 65 65 64 63 64 63 61 61 63 63 62 62 62 63 63 63 62 62 62 63 63 64 64 63 64 65 66 66 65 65 65 66 65 65 65 65 64 64 64 64 65 68 68 68
15 19 21 23 21 23 22 20 23 22 22 18 22 24 22 26 25 30 28 26 24 30 37 36 41 48 49 49 51 48 49 53 56 57 59 63 63 62 65 64 67 69 68 66 67 66 66 65 66 66 66 68 66 64 62 60 62 61 62 62 63 64 63 62 63 63 62 63 63 62 62 61 62 63 63 64 64 65 64 65 64 65 65 65 65 65 65 65 65 64 64 63 63 64 65 66 66
16 15 13 22 25 21 23 19 18 20 19 20 20 25 28 21 20 22 23 33 35 32 31 41 41 46 51 51 53 51 50 54 56 59 58 58 61 65 66 66 68 69 66 64 65 65 66 65 66 66 67 66 64 63 61 60 60 62 63 63 63 65 63 62 63 63 63 63 62 62 62 62 63 63 63 65 65 65 65 65 64 64 64 65 65 65 64 64 65 64 64 64 64 65 65 66 66
14 13 14 16 19 25 18 22 21 21 19 21 28 26 26 24 36 35 38 33 36 31 35 38 40 42 47 52 53 52 50 51 54 54 54 57 60 66 66 63 67 67 66 63 65 66 65 64 65 65 66 64 64 62 62 60 60 63 63 63 63 63 64 64 64 63 64 63 62 63 64 64 64 64 65 65 64 64 64 64 64 64 64 63 64 64 64 63 64 63 63 64 63 63 64 65 65
14 12 14 15 14 15 23 26 18 21 22 24 25 28 28 26 23 25 32 30 33 34 34 33 40 40 45 51 54 54 53 53 57 60 60 59 58 65 63 63 63 64 63 63 65 67 66 65 64 64 64 64 64 63 63 63 62 62 63 64 63 62 63 63 62 61 60 62 62 64 63 63 64 64 64 63 64 64 64 64 64 63 63 63 63 63 63 63 63 63 62 62 62 63 63 63 63
15 14 13 17 19 18 26 19 27 20 16 21 19 22 23 24 23 30 29 31 29 32 35 33 39 43 46 47 55 57 55 54 59 61 58 57 60 64 63 64 65 60 60 63 67 67 65 64 64 64 64 65 64 64 63 64 64 64 64 64 64 63 61 61 62 62 61 61 63 63 63 62 62 62 62 63 63 63 64 64 63 63 63 63 63 62 63 63 63 63 63 63 62 62 61 62 63
9 14 17 13 20 21 25 26 23 23 23 23 22 22 23 23 31 28 32 31 29 32 36 35 35 40 47 50 50 55 58 54 55 60 61 56 59 65 66 66 63 61 63 61 65 66 64 64 63 63 64 64 64 64 64 64 63 61 62 63 62 62 63 62 62 62 62 61 61 61 62 62 62 63 63 63 63 63 63 62 63 62 62 61 61 62 62 62 63 63 64 63 62 62 63 63 63
17 16 17 10 19 23 24 25 25 28 21 22 20 18 17 30 24 30 31 32 33 29 33 34 33 35 43 50 51 52 54 55 54 57 60 60 61 63 63 59 59 58 57 59 63 63 58 61 64 63 63 65 65 65 64 63 63 64 63 63 63 63 63 63 63 63 62 61 61 61 61 61 62 62 62 62 63 62 62 62 60 59 60 61 61 61 61 62 63 64 65 63 63 64 65 65 63
13 15 18 17 16 17 21 22 23 24 25 24 22 19 23 32 26 24 31 31 31 30 32 38 36 36 36 44 51 55 57 61 60 58 56 61 60 62 63 63 61 55 57 59 60 59 57 59 61 60 63 63 62 64 63 64 63 63 63 62 63 64 64 63 62 62 62 62 61 62 61 62 63 63 62 62 62 63 63 62 62 62 62 63 64 64 63 63 63 64 64 65 65 64 63 63 64
13 13 15 16 16 19 19 23 21 20 19 21 20 20 28 32 31 34 28 29 28 32 34 36 38 35 40 42 48 56 57 58 63 60 63 62 62 61 61 63 59 55 57 57 58 58 56 58 58 58 57 58 59 63 64 64 64 62 62 63 63 62 63 63 62 62 61 61 60 59 61 62 61 62 62 61 62 61 62 62 61 62 63 63 64 65 63 63 63 63 63 63 62 63 64 63 64